User: anonymous
Location: Bowman Observatory
(41.0326°N, 73.6210°W)
Time: 13:30:22
(UTC-04:00)
Language:

Cosmos 2298 Rocket - Orbit

View from above orbital plane
View from above orbital plane
View from above satellite
View from above satellite

Ground track
Ground track

The orbit data is extracted from the following two-line orbital elements,

1 23432U 94083B   14244.75422483  .00000031  00000-0  20782-4 0  9221
2 23432 074.0355 001.9657 0004344 094.4757 056.4381 14.33278744 30237
Epoch (UTC): 01 September 2014 18:06:05
Eccentricity: 0.0004344
inclination: 74.0355°
perigee height: 777 km
apogee height: 784 km
right ascension of ascending node: 1.9657°
argument of perigee: 94.4757°
revolutions per day: 14.33278744
mean anomaly at epoch: 56.4381°
orbit number at epoch: 3023

The dashed part of the orbit path shows where the satellite is in the earth's shadow,  

DLR